Regional Weather Roundup
Issued by NWS

Home | Current Version | Previous Version | Text Only | Print | Product List | Glossary Off
Versions: 1 2 3 4 5 6 7 8 9 10 11 12 13 14 15 16 17 18 19 20 21 22 23 24 25 26 27 28 29 30 31 32 33 34 35 36 37 38 39 40 41 42 43 44 45 46 47 48 49 50

000
ASUS43 KLOT 011903
RWRIL

ILLINOIS REGIONAL WEATHER ROUNDUP
NATIONAL WEATHER SERVICE CHICAGO/ROMEOVILLE IL
200 PM CDT SUN MAY 01 2016

NOTE: "FAIR" INDICATES FEW OR NO CLOUDS BELOW 12,000 FEET WITH NO
SIGNIFICANT WEATHER AND/OR OBSTRUCTIONS TO VISIBILITY.

* THESE STATIONS ARE NOT UNDER NWS QUALITY CONTROL. THEY ALSO MAY NOT
  REPORT WEATHER SUCH AS PRECIPITATION OR FOG.

ILZ001-002-007-009-015-016-024-012000-
NORTHWEST ILLINOIS

CITY           SKY/WX    TMP DP  RH WIND       PRES   REMARKS
MOLINE         CLOUDY    52  46  80 E10       29.99R
STERLING*      CLOUDY    52  46  82 E14       30.00R
$$

ILZ003-004-008-010-011-017-018-012000-
NORTH CENTRAL ILLINOIS

CITY           SKY/WX    TMP DP  RH WIND       PRES   REMARKS
ROCKFORD       CLOUDY    53  45  74 E12       30.02S
FREEPORT*      CLOUDY    49  46  88 E15       30.02F
ROCHELLE*      CLOUDY    49  46  88 E14       30.00S
DE KALB*       CLOUDY    49  46  91 E13       30.01R
$$

ILZ005-006-012>014-019>023-012000-
NORTHEAST ILLINOIS

CITY           SKY/WX    TMP DP  RH WIND       PRES   REMARKS
CHICAGO-OHARE  CLOUDY    48  44  86 NE12      30.00R
CHICAGO-MIDWAY CLOUDY    49  44  83 NE10      30.01R
AURORA         CLOUDY    50  46  86 E12       30.00S FOG
LANSING*       CLOUDY    49  46  90 NE3       29.99S FOG
WAUKEGAN       CLOUDY    46  42  86 N12       30.01S
DUPAGE AIRPORT CLOUDY    49  43  80 NE13      29.99S
WHEELING       CLOUDY    48  44  86 NE8       30.02R
MORRIS*        CLOUDY    52  47  84 NE5       29.98S
NORTHERLY ISL    N/A     45  43  93 N10         N/A
NORTHERLY ISL    N/A     45  43  93 N10         N/A
$$

LMZ740>746-012000-
SOUTHERN LAKE MICHIGAN

STATION/POSITION SKY/WX   TEMP    WIND        PRES    VSBY  WAVE
                          AIR SEA DIR/SP/G                  HT/PER
                          (F)     (DEG/KT/KT) (MB)    (MI)  (FT/S)
SOUTHERN BUOY              42 40   30/ 10/ 10 1016.2          2/ 5
HARRISON CRIB              44      10/ 15/ 17   N/A
BURNHAM HARBOR             45     350/  8/ 14   N/A
CALUMET HARBOR             45      10/ 12/ 14 1015.1F
BURNS HARBOR               46      20/ 10/ 12 1015.9S
MICHIGAN CITY              45     360/ 11/ 12   N/A
ST. JOSEPH                 47 48                N/A           2/ 4
$$

ILZ025>027-034>036-040-047-049-050-058-095>099-012000-
WEST-CENTRAL ILLINOIS

CITY           SKY/WX    TMP DP  RH WIND       PRES   REMARKS
QUINCY         CLOUDY    54  52  93 NE7       29.96S FOG
MACOMB*        CLOUDY    55  52  90 E5        29.98S
PITTSFIELD*    CLOUDY    58  55  88 CALM      29.96S
$$

ILZ028>032-037-038-041>044-048-051>054-059>061-012000-
CENTRAL ILLINOIS

CITY           SKY/WX    TMP DP  RH WIND       PRES   REMARKS
BLOOMINGTON    CLOUDY    56  56 100 E10       29.97S FOG
DECATUR        CLOUDY    65  58  78 E7        29.94F
PEORIA         CLOUDY    54  50  86 NE10      29.96F
LINCOLN*       CLOUDY    60  56  87 E5        29.95S
SPRINGFIELD    CLOUDY    63  57  81 NE5       29.95R
TAYLORVILLE    NOT AVBL
$$

ILZ033-039-045-046-055>057-062-063-012000-
EAST-CENTRAL ILLINOIS

CITY           SKY/WX    TMP DP  RH WIND       PRES   REMARKS
CHAMPAIGN      CLOUDY    63  58  83 NE6       29.94F
MATTOON        PTSUNNY   68  57  68 N3        29.93F
$$

ILZ079-100>102-012000-
SOUTHWEST ILLINOIS

CITY           SKY/WX    TMP DP  RH WIND       PRES   REMARKS
BELLEVILLE     PTSUNNY   71  63  76 W8        29.92S
CAHOKIA*       MOSUNNY   70  59  68 NW7       29.93F
SPARTA*        PTSUNNY   72  62  69 W6        29.94S
$$

ILZ064>066-069>071-074>076-080>082-084>086-088>090-092>094-012000-
SOUTH-CENTRAL ILLINOIS

CITY           SKY/WX    TMP DP  RH WIND       PRES   REMARKS
CARBONDALE     MOSUNNY   75  61  61 CALM      29.91F
CAIRO*         MOSUNNY   76  66  71 SW6       29.92F
EFFINGHAM*     CLOUDY    69  63  79 NW6       29.94F
MARION         PTSUNNY   75  63  64 S9        29.92F
MT. VERNON     MOSUNNY   75  63  64 SW14G20   29.93S
SALEM*         CLOUDY    74  63  68 W10       29.92S
$$

ILZ067-068-072-073-078-083-087-091-012000-
SOUTHEAST ILLINOIS

CITY           SKY/WX    TMP DP  RH WIND       PRES   REMARKS
LAWRENCEVILLE  MOSUNNY   76  61  59 SW8       29.91F
FLORA*         PTSUNNY   76  63  62 SW7       29.91F
HARRISBURG*    MOSUNNY   77  66  68 W12       29.92S
ROBINSON*      MOSUNNY   73  62  67 N3        29.92F
CARMI*         MOSUNNY   77  66  68 SW9       29.91S
$$

ABBREVIATIONS USED IN REMARKS
   TC - TEMPERATURE IN CELSIUS
  WCI - WIND CHILL INDEX
   HX - HEAT INDEX
  VSB - VISIBILITY
$$




USA.gov is the U.S. government's official web portal to all federal, state and local government web resources and services.